Time,TemperatureF,DewpointF,PressureIn,WindDirection,WindDirectionDegrees,WindSpeedMPH,WindSpeedGustMPH,Humidity,HourlyPrecipIn,Conditions,Clouds,dailyrainin,SolarRadiationWatts/m^2,SoftwareType,DateUTC
2013-05-07 00:02:00,49.0,41.0,-100.00,NE,36,1.0,2.0,73,0.00,,,0.00,0.000000,,2013-05-07 05:02:00,
2013-05-07 00:32:00,48.0,44.0,-100.00,WSW,243,1.0,7.0,85,0.00,,,0.00,0.000000,,2013-05-07 05:32:00,
2013-05-07 00:42:00,48.0,44.0,-100.00,WSW,243,1.0,7.0,85,0.00,,,0.00,0.000000,,2013-05-07 05:42:00,
2013-05-07 00:52:00,48.0,44.0,-100.00,WSW,243,1.0,7.0,85,0.00,,,0.00,0.000000,,2013-05-07 05:52:00,
2013-05-07 01:02:00,48.0,44.0,-100.00,WSW,243,1.0,7.0,85,0.00,,,0.00,0.000000,,2013-05-07 06:02:00,
2013-05-07 01:32:00,47.0,41.0,-100.00,NE,55,1.0,4.0,79,0.00,,,0.00,0.000000,,2013-05-07 06:32:00,
2013-05-07 01:42:00,47.0,41.0,-100.00,NE,55,1.0,4.0,79,0.00,,,0.00,0.000000,,2013-05-07 06:42:00,
2013-05-07 01:52:00,47.0,41.0,-100.00,NE,55,1.0,4.0,79,0.00,,,0.00,0.000000,,2013-05-07 06:52:00,
2013-05-07 02:02:00,47.0,41.0,-100.00,NE,55,1.0,4.0,79,0.00,,,0.00,0.000000,,2013-05-07 07:02:00,
2013-05-07 02:32:00,45.0,41.0,-100.00,SE,144,0.0,4.0,85,0.00,,,0.00,0.000000,,2013-05-07 07:32:00,
2013-05-07 02:42:00,45.0,41.0,-100.00,SE,144,0.0,4.0,85,0.00,,,0.00,0.000000,,2013-05-07 07:42:00,
2013-05-07 02:52:00,45.0,41.0,-100.00,SE,144,0.0,4.0,85,0.00,,,0.00,0.000000,,2013-05-07 07:52:00,
2013-05-07 03:02:00,45.0,41.0,-100.00,SE,144,0.0,4.0,85,0.00,,,0.00,0.000000,,2013-05-07 08:02:00,
2013-05-07 03:32:00,44.0,40.0,-100.00,SSW,211,0.0,2.0,86,0.00,,,0.00,0.000000,,2013-05-07 08:32:00,
2013-05-07 03:42:00,44.0,40.0,-100.00,SSW,211,0.0,2.0,86,0.00,,,0.00,0.000000,,2013-05-07 08:42:00,
2013-05-07 03:52:00,44.0,40.0,-100.00,SSW,211,0.0,2.0,86,0.00,,,0.00,0.000000,,2013-05-07 08:52:00,
2013-05-07 04:01:00,44.0,40.0,-100.00,SSW,211,0.0,2.0,86,0.00,,,0.00,0.000000,,2013-05-07 09:01:00,
2013-05-07 04:33:00,41.0,39.0,-100.00,South,182,0.0,2.0,92,0.00,,,0.00,0.000000,,2013-05-07 09:33:00,
2013-05-07 04:43:00,41.0,39.0,-100.00,South,182,0.0,2.0,92,0.00,,,0.00,0.000000,,2013-05-07 09:43:00,
2013-05-07 04:52:00,41.0,39.0,-100.00,South,182,0.0,2.0,92,0.00,,,0.00,0.000000,,2013-05-07 09:52:00,
2013-05-07 05:03:00,41.0,39.0,-100.00,South,182,0.0,2.0,92,0.00,,,0.00,0.000000,,2013-05-07 10:03:00,
2013-05-07 05:33:00,41.0,40.0,-100.00,West,269,2.0,6.0,96,0.00,,,0.00,0.000000,,2013-05-07 10:33:00,
2013-05-07 05:42:00,41.0,40.0,-100.00,West,269,2.0,6.0,96,0.00,,,0.00,0.000000,,2013-05-07 10:42:00,
2013-05-07 05:52:00,41.0,40.0,-100.00,West,269,2.0,6.0,96,0.00,,,0.00,0.000000,,2013-05-07 10:52:00,
2013-05-07 06:02:00,41.0,40.0,-100.00,West,269,2.0,6.0,96,0.00,,,0.00,0.000000,,2013-05-07 11:02:00,
2013-05-07 06:32:00,39.0,38.0,-100.00,ESE,107,2.0,3.0,95,0.00,,,0.00,4.000000,,2013-05-07 11:32:00,
2013-05-07 06:42:00,39.0,38.0,-100.00,ESE,107,2.0,3.0,95,0.00,,,0.00,4.000000,,2013-05-07 11:42:00,
2013-05-07 06:52:00,39.0,38.0,-100.00,ESE,107,2.0,3.0,95,0.00,,,0.00,4.000000,,2013-05-07 11:52:00,
2013-05-07 07:02:00,39.0,38.0,-100.00,ESE,107,2.0,3.0,95,0.00,,,0.00,4.000000,,2013-05-07 12:02:00,
2013-05-07 07:32:00,50.0,48.0,-100.00,ESE,103,0.0,2.0,93,0.00,,,0.00,85.000000,,2013-05-07 12:32:00,
2013-05-07 07:42:00,50.0,48.0,-100.00,ESE,103,0.0,2.0,93,0.00,,,0.00,85.000000,,2013-05-07 12:42:00,
2013-05-07 07:52:00,50.0,48.0,-100.00,ESE,103,0.0,2.0,93,0.00,,,0.00,85.000000,,2013-05-07 12:52:00,
2013-05-07 08:02:00,50.0,48.0,-100.00,ESE,103,0.0,2.0,93,0.00,,,0.00,85.000000,,2013-05-07 13:02:00,
2013-05-07 08:32:00,60.0,49.0,-100.00,North,1,3.0,4.0,67,0.00,,,-99.99,198.000000,,2013-05-07 13:32:00,
2013-05-07 08:42:00,60.0,49.0,-100.00,North,1,3.0,4.0,67,0.00,,,-99.99,198.000000,,2013-05-07 13:42:00,
2013-05-07 08:52:00,60.0,49.0,-100.00,North,1,3.0,4.0,67,0.00,,,-99.99,198.000000,,2013-05-07 13:52:00,
2013-05-07 09:02:00,60.0,49.0,-100.00,North,1,3.0,4.0,67,0.00,,,-99.99,198.000000,,2013-05-07 14:02:00,
2013-05-07 09:32:00,68.0,50.0,-100.00,SSW,203,2.0,4.0,52,0.00,,,0.00,323.000000,,2013-05-07 14:32:00,
2013-05-07 09:42:00,68.0,50.0,-100.00,SSW,203,2.0,4.0,52,0.00,,,0.00,323.000000,,2013-05-07 14:42:00,
2013-05-07 09:52:00,68.0,50.0,-100.00,SSW,203,2.0,4.0,52,0.00,,,0.00,323.000000,,2013-05-07 14:52:00,
2013-05-07 10:01:00,68.0,50.0,-100.00,SSW,203,2.0,4.0,52,0.00,,,0.00,323.000000,,2013-05-07 15:01:00,
2013-05-07 10:33:00,72.0,48.0,-100.00,ESE,103,4.0,6.0,43,0.00,,,0.00,443.000000,,2013-05-07 15:33:00,
2013-05-07 10:42:00,72.0,48.0,-100.00,ESE,103,4.0,6.0,43,0.00,,,0.00,443.000000,,2013-05-07 15:42:00,
2013-05-07 10:53:00,72.0,48.0,-100.00,ESE,103,4.0,6.0,43,0.00,,,0.00,443.000000,,2013-05-07 15:53:00,
2013-05-07 11:03:00,72.0,48.0,-100.00,ESE,103,4.0,6.0,43,0.00,,,0.00,443.000000,,2013-05-07 16:03:00,
2013-05-07 13:32:00,77.0,37.0,-100.00,SW,228,9.0,17.0,24,-99.99,,,-99.99,759.000000,,2013-05-07 18:32:00,
2013-05-07 13:42:00,77.0,37.0,-100.00,SW,228,9.0,17.0,24,-99.99,,,-99.99,759.000000,,2013-05-07 18:42:00,
2013-05-07 13:52:00,77.0,37.0,-100.00,SW,228,9.0,17.0,24,-99.99,,,-99.99,759.000000,,2013-05-07 18:52:00,
2013-05-07 14:02:00,77.0,37.0,-100.00,SW,228,9.0,17.0,24,-99.99,,,-99.99,759.000000,,2013-05-07 19:02:00,
2013-05-07 14:32:00,78.0,36.0,-100.00,South,190,6.0,16.0,22,0.00,,,0.00,766.000000,,2013-05-07 19:32:00,
2013-05-07 14:42:00,78.0,36.0,-100.00,South,190,6.0,16.0,22,0.00,,,0.00,766.000000,,2013-05-07 19:42:00,
2013-05-07 14:52:00,78.0,36.0,-100.00,South,190,6.0,16.0,22,0.00,,,0.00,766.000000,,2013-05-07 19:52:00,
2013-05-07 15:02:00,78.0,36.0,-100.00,South,190,6.0,16.0,22,0.00,,,0.00,766.000000,,2013-05-07 20:02:00,
2013-05-07 15:32:00,80.0,38.0,-100.00,SSW,202,7.0,21.0,22,0.00,,,0.00,546.000000,,2013-05-07 20:32:00,
2013-05-07 15:42:00,80.0,38.0,-100.00,SSW,202,7.0,21.0,22,0.00,,,0.00,546.000000,,2013-05-07 20:42:00,
2013-05-07 15:52:00,80.0,38.0,-100.00,SSW,202,7.0,21.0,22,0.00,,,0.00,546.000000,,2013-05-07 20:52:00,
2013-05-07 16:01:00,80.0,38.0,-100.00,SSW,202,7.0,21.0,22,0.00,,,0.00,546.000000,,2013-05-07 21:01:00,
2013-05-07 16:33:00,80.0,38.0,-100.00,SSW,193,7.0,15.0,22,0.00,,,0.00,527.000000,,2013-05-07 21:33:00,
2013-05-07 16:43:00,80.0,38.0,-100.00,SSW,193,7.0,15.0,22,0.00,,,0.00,527.000000,,2013-05-07 21:43:00,
2013-05-07 16:53:00,80.0,38.0,-100.00,SSW,193,7.0,15.0,22,0.00,,,0.00,527.000000,,2013-05-07 21:53:00,
2013-05-07 17:02:00,80.0,38.0,-100.00,SSW,193,7.0,15.0,22,0.00,,,0.00,527.000000,,2013-05-07 22:02:00,
2013-05-07 17:33:00,78.0,32.0,-100.00,SSW,196,9.0,18.0,19,0.00,,,0.00,450.000000,,2013-05-07 22:33:00,
2013-05-07 17:42:00,78.0,32.0,-100.00,SSW,196,9.0,18.0,19,0.00,,,0.00,450.000000,,2013-05-07 22:42:00,
2013-05-07 17:52:00,78.0,32.0,-100.00,SSW,196,9.0,18.0,19,0.00,,,0.00,450.000000,,2013-05-07 22:52:00,
2013-05-07 18:02:00,78.0,32.0,-100.00,SSW,196,9.0,18.0,19,0.00,,,0.00,450.000000,,2013-05-07 23:02:00,
2013-05-07 18:32:00,79.0,33.0,-100.00,SW,220,9.0,15.0,19,0.00,,,0.00,452.000000,,2013-05-07 23:32:00,
2013-05-07 18:42:00,79.0,33.0,-100.00,SW,220,9.0,15.0,19,0.00,,,0.00,452.000000,,2013-05-07 23:42:00,
2013-05-07 18:52:00,79.0,33.0,-100.00,SW,220,9.0,15.0,19,0.00,,,0.00,452.000000,,2013-05-07 23:52:00,
2013-05-07 19:02:00,79.0,33.0,-100.00,SW,220,9.0,15.0,19,0.00,,,0.00,452.000000,,2013-05-08 00:02:00,
2013-05-07 19:32:00,77.0,36.0,-100.00,SSW,207,7.0,14.0,23,0.00,,,-99.99,182.000000,,2013-05-08 00:32:00,
2013-05-07 19:42:00,77.0,36.0,-100.00,SSW,207,7.0,14.0,23,0.00,,,-99.99,182.000000,,2013-05-08 00:42:00,
2013-05-07 19:52:00,77.0,36.0,-100.00,SSW,207,7.0,14.0,23,0.00,,,-99.99,182.000000,,2013-05-08 00:52:00,
2013-05-07 20:02:00,77.0,36.0,-100.00,SSW,207,7.0,14.0,23,0.00,,,-99.99,182.000000,,2013-05-08 01:02:00,
2013-05-07 20:32:00,71.0,34.0,-100.00,South,180,2.0,9.0,26,0.00,,,0.00,69.000000,,2013-05-08 01:32:00,
2013-05-07 20:42:00,71.0,34.0,-100.00,South,180,2.0,9.0,26,0.00,,,0.00,69.000000,,2013-05-08 01:42:00,
2013-05-07 20:52:00,71.0,34.0,-100.00,South,180,2.0,9.0,26,0.00,,,0.00,69.000000,,2013-05-08 01:52:00,
2013-05-07 21:02:00,71.0,34.0,-100.00,South,180,2.0,9.0,26,0.00,,,0.00,69.000000,,2013-05-08 02:02:00,
2013-05-07 21:32:00,59.0,37.0,-100.00,SE,139,1.0,3.0,43,0.00,,,0.00,3.000000,,2013-05-08 02:32:00,
2013-05-07 21:42:00,59.0,37.0,-100.00,SE,139,1.0,3.0,43,0.00,,,0.00,3.000000,,2013-05-08 02:42:00,
2013-05-07 21:52:00,59.0,37.0,-100.00,SE,139,1.0,3.0,43,0.00,,,0.00,3.000000,,2013-05-08 02:52:00,
2013-05-07 22:02:00,59.0,37.0,-100.00,SE,139,1.0,3.0,43,0.00,,,0.00,3.000000,,2013-05-08 03:02:00,
2013-05-07 22:33:00,54.0,39.0,-100.00,SE,133,2.0,4.0,56,0.00,,,0.00,0.000000,,2013-05-08 03:33:00,
2013-05-07 22:43:00,54.0,39.0,-100.00,SE,133,2.0,4.0,56,0.00,,,0.00,0.000000,,2013-05-08 03:43:00,
2013-05-07 22:52:00,54.0,39.0,-100.00,SE,133,2.0,4.0,56,0.00,,,0.00,0.000000,,2013-05-08 03:52:00,
2013-05-07 23:02:00,54.0,39.0,-100.00,SE,133,2.0,4.0,56,0.00,,,0.00,0.000000,,2013-05-08 04:02:00,
2013-05-07 23:33:00,50.0,39.0,-100.00,ESE,114,0.0,3.0,66,0.00,,,0.00,0.000000,,2013-05-08 04:33:00,
2013-05-07 23:43:00,50.0,39.0,-100.00,ESE,114,0.0,3.0,66,0.00,,,0.00,0.000000,,2013-05-08 04:43:00,
2013-05-07 23:53:00,50.0,39.0,-100.00,ESE,114,0.0,3.0,66,0.00,,,0.00,0.000000,,2013-05-08 04:53:00,